Airfield :
LOGIN :

Register | Disclaimer

   EN    FR    IT 

 










Legend :    VFR   Marginal VFR   IFR   Intensive IFR   Very Intensive IFR
Visi :
Ceiling :
>= 8 km
>= 3000ft
5 to 8 km
1000 to 3000 ft
1500m to 5 km
500 to 1000 ft
800 to 1500m
200 to 500 ft
< 800m
< 200 ft
Symbols :   Thunderstorms  Fog  Heavy snow  Heavy precipitations  Wind > 20 kt
SIGMETs :     Misc.  Thunderstorms  Icing  Turbulence  Mountain Waves  Volcanic Ashes






- Airport Elevation : 113 ft


EKRS - Ringsted

CURRENT METAR :
  • 240850Z AUTO 30010KT 220V010 9999 NCD 13/10 Q1008

EXPIRED METARs :
  • 240820Z AUTO VRB12G22KT 9999 SCT029/// 13/09 Q1008
  • 240750Z AUTO VRB10KT 9999 FEW028/// 13/09 Q1008
  • 240720Z AUTO 30012KT 230V030 9999 SCT033/// BKN230/// 13/09 Q1008
  • 240650Z AUTO 29008KT 200V350 9999 SCT031/// 12/09 Q1008
  • 240620Z AUTO VRB08KT 9999 BKN030/// 12/09 Q1008

TAF N/A



MET'MAP, your aeronautical weather chart ! - Copyright ORBIFLY December 2007 - Disclaimer

ORBIFLY MET'MAP TEAM :

Programming & Development : Alexandra Zaïnal
Concept & original design : Baudouin d'Aumeries
Assistance for programming : Marc-Olivier Méhu
Technical & hardware support : Manuel Goepfert

Contact : metmap@orbifly.com




SOURCES & CREDITS :

   NOAA